Regional Weather Roundup
Issued by NWS

Home | Current Version | Previous Version | Graphics & Text | Print | Product List | Glossary On
Versions: 1 2 3 4 5 6 7 8 9 10 11 12 13 14 15 16 17 18 19 20 21 22 23 24 25 26 27 28 29 30 31 32 33 34 35 36 37 38 39 40 41 42 43 44 45 46 47 48 49 50
000
ASUS43 KDTX 020101
RWRMI
MICHIGAN HOURLY REGIONAL WEATHER ROUNDUP
NATIONAL WEATHER SERVICE DETROIT/PONTIAC MI
900 PM EDT SUN MAY 01 2016

NOTE: "FAIR" INDICATES FEW OR NO CLOUDS BELOW 12,000 FEET WITH NO
SIGNIFICANT WEATHER AND/OR OBSTRUCTION TO VISIBILITY.

MIZ047>049-052>055-059>063-066>070-074>076-081>083-020200-
SOUTHEAST LOWER MICHIGAN

CITY           SKY/WX    TMP DP  RH WIND       PRES   REMARKS
ADRIAN         CLOUDY    52  47  83 NE16      29.97F
ALMA           CLOUDY    46  38  73 NE12      30.07R
ANN ARBOR      CLOUDY    49  45  86 NE8       30.01R
BAD AXE        CLOUDY    44  39  84 NE9       30.07S
CARO           CLOUDY    45  39  81 NE7       30.05S
DETROIT CITY   CLOUDY    49  43  80 N8        30.02R
DETROIT        CLOUDY    50  45  83 N9        30.02R
FLINT          CLOUDY    49  40  71 NE10      30.05R
GROSSE ILE     CLOUDY    52  46  82 NE5       30.00S
HILLSDALE      CLOUDY    50  49  99 NE8       29.96F
HOWELL         CLOUDY    46  44  90 NE8       30.03R

CITY           SKY/WX    TMP DP  RH WIND       PRES   REMARKS
JACKSON        CLOUDY    48  46  93 NE13      29.99S
LAMBERTVILLE   CLOUDY    53  49  89 E6        29.98F FOG
LANSING        CLOUDY    46  42  86 NE13G22   30.04R
LAPEER         CLOUDY    45  39  79 NE7       30.05R
MASON          CLOUDY    46  44  90 NE12      30.03R
MONROE         CLOUDY    51  48  90 NE8       29.99S
MT. CLEMENS    CLOUDY    48  48 100 N12       30.01S
PONTIAC        CLOUDY    46  42  86 NE10      30.02R
PORT HOPE        N/A     42  39  89 NE8       30.07R
PORT HURON     CLOUDY    45  43  93 N6        30.03R
TRI CITIES     CLOUDY    48  39  71 NE10      30.08R
MIDLAND        CLOUDY    47  37  68 NE13G21   30.07S
TROY           CLOUDY    48  45  87 N8        30.05R
SAGINAW HB     CLOUDY    46  39  76 NE12      30.06S
$$
MIZ043>046-050>051-056>058-064>065-071>073-077>080-020200-
SOUTHWEST LOWER MICHIGAN

CITY           SKY/WX    TMP DP  RH WIND       PRES   REMARKS
BATTLE CREEK   CLOUDY    48  46  93 NE14      30.00R FOG
BENTON HARBOR  CLOUDY    51  46  83 NE10      29.96F
BIG RAPIDS     CLOUDY    50  35  55 E10G18    30.06R
COLDWATER      CLOUDY    51  48  90 NE14G21   29.96S
FREMONT        CLOUDY    50  39  67 NE9       30.04S
HOLLAND        CLOUDY    50  42  74 E13G21    30.03R
GRAND RAPIDS   CLOUDY    49  38  65 NE12      30.03S
IONIA          CLOUDY    46  39  75 NE15      30.04R
KALAMAZOO      CLOUDY    50  45  83 NE10      29.99R FOG
LUDINGTON      CLOUDY    50  42  72 E5        30.07S
MARSHALL       CLOUDY    48  47  93 NE5       29.99R FOG
MOUNT PLEASANT CLOUDY    47  35  61 NE8       30.06S
MUSKEGON       CLOUDY    51  40  65 E12G22    30.03S
$$
MIZ016>042-020200-
NORTHERN LOWER MICHIGAN

CITY           SKY/WX    TMP DP  RH WIND       PRES   REMARKS
ALPENA         CLOUDY    49  33  54 E5        30.11R
BEAVER ISLAND  PTCLDY    46  34  62 CALM      30.10S
BELLAIRE       CLOUDY    54  30  38 NE3       30.08S
CADILLAC       CLOUDY    49  35  58 NE6       30.06S
CHARLEVOIX     CLOUDY    55  29  38 E5        30.12R
FRANKFORT      CLOUDY    51  38  62 N3        30.08S
GAYLORD        CLOUDY    51  31  46 NE3       30.08R
HARBOR SPRINGS CLOUDY    53  30  41 CALM      30.09R
HOUGHTON LAKE  CLOUDY    50  32  50 E7        30.08R
MANISTEE       CLOUDY    52  37  58 NE6       30.07F
OSCODA         PTCLDY    44  34  67 NE5       30.09R
PELLSTON       MOCLDY    52  30  43 CALM      30.09S
ROGERS CITY    CLOUDY    47  36  64 E5        30.11R
TRAVERSE CITY  CLOUDY    50  38  63 CALM      30.07S
$$
MIZ007>008-015-020200-
EASTERN UPPER MICHIGAN

CITY           SKY/WX    TMP DP  RH WIND       PRES   REMARKS
KINROSS          N/A     52  32  46 N7        30.08S
MACKINAC ISLAN CLOUDY    50  33  52 CALM      30.09R
NEWBERRY       PTCLDY    52  32  46 N8        30.10R
S. S. MARIE    CLOUDY    55  32  41 CALM      30.08S
MUNISING         N/A     41  36  82 N6        30.14R
$$
MIZ004>006-011>014-085-020200-
CENTRAL UPPER MICHIGAN

CITY           SKY/WX    TMP DP  RH WIND       PRES   REMARKS
MANISTIQUE     CLEAR     48  33  55 CALM      30.10R
ESCANABA       CLEAR     52  30  43 CALM      30.11R
MENOMINEE      CLEAR     48  34  57 E5        30.10S
SAWYER-GWINN   CLEAR     43  32  65 N8        30.12S
$$
MIZ001>003-009>011-084-020200-
WESTERN UPPER MICHIGAN

CITY           SKY/WX    TMP DP  RH WIND       PRES   REMARKS
IRON MOUNTAIN  CLEAR     54  26  34 NE10G17   30.10R
HOUGHTON       CLEAR     47  31  53 CALM      30.15S
COPPER HARBOR    N/A     43  37  79 CALM      30.16S
IRONWOOD         N/A     45  34  65 NE5       30.13S
$$

ABBREVIATIONS USED IN REMARKS
   TC - TEMPERATURE IN CELSIUS
  WCI - WIND CHILL INDEX
   HX - HEAT INDEX
  VSB - VISIBILITY





USA.gov is the U.S. government's official web portal to all federal, state and local government web resources and services.